C/2017 S3 ( PanSTARRS )

Japanese version
Home page
Updated on February 13, 2018

---------------------------------------------------------------------

* Profile

Discovery Date September 23, 2017
Magnitude 21.5 mag
Discoverer Pan-STARRS 1 telescope (Haleakala)

* Pictures

* Orbital Elements

Epoch 2018 Aug. 30.0 TT = JDT 2458360.5
T 2018 Aug. 15.94010 TT                                 MPCW
q   0.2084493            (2000.0)            P               Q
z  -0.0004397      Peri.  255.88989     +0.21708877     -0.96396230
 +/-0.0000108      Node   171.04166     +0.20808185     +0.19961695
e   1.0000917      Incl.   99.03813     -0.95371611     -0.17586861
From 54 observations 2017 Aug. 17-2018 Jan. 15, mean residual 0".4.

* Finding Charts

* Magnitudes Graph

        m1 = 10.0 + 5 log d + 10.0 log r

---------------------------------------------------------------------

The orbital elements are published on M.P.E.C. 2018-B155.
The charts are made with StellaNavigator Ver.10 (AstroArts).
The magnitudes graphs are made with Comet for Windows.

---------------------------------------------------------------------

Copyright(C) Seiichi Yoshida (comet@aerith.net). All rights reserved.